STARLINK-32312, 61711

Orbit data source: Space-Track

STARLINK-32312, 61711 is a payload satellite owned by SpaceX/Seattle (US) in LEO that was launched on Wed, 30 Oct 2024 UTC via an FALCON 9 launch vehicle from the Air Force Eastern Test Range (AFETR). Payload-class satellites include a variety of spacecraft equipped with specific instruments for various scientific and technological missions. These include communications satellites like Starlink; space stations such as the ISS; scientific satellites like the Hubble; Earth observation satellites from companies like Planet Labs, Umbra, and HawkEye 360; GPS; miniature CubeSats for education and research; and military/defense satellites.

Loading next visibility...
Identifier
61711, 2024-196E
Orbit
LEO
Country
Flag of USUS
Related business
Manufacturer
SpaceX/Seattle
Mission
Operational Commercial Communications
Bus & Motor
STARLINK V2M, Unknown motor
Mass
730 kg wet, ~700 kg dry
Launch date (UTC)
2024-10-30 (1 year ago)
Launch vehicle
FALCON 9
Launch site
Air Force Eastern Test Range (AFETR)
Object type
Payload
Rocket body
Debris
Shape & HBR
Box + 2 Pan, 17.7 m
Radar Cross Section
33.884 m², Large (>1 m²)

Expand to show TLE details & history
Last TLE update: 12 hours ago

TLE from 12 hours ago
0 STARLINK-32312
1 61711U 24196E   25292.69721877 -.00001309  00000-0 -32095-4 0  9993
2 61711  53.1621  35.9757 0001277  94.7831 265.3315 15.30184234 55579
Epoch: 2025-10-19T16:43Z
TLE epoch observation values (Epoch: 2025-10-19T16:43:59.701Z)
Latitude
-0.00008°
Longitude
116.56672°
Altitude
476.233 km
Speed
7.629 km/s
True Right ascension
02h 23m 54s
True Declination
0° 00' 00"
Sunlit
Object was in full shadow at epoch
Visualization orbit readout
Latitude
Unknown
Longitude
Unknown
Altitude
Unknown
Speed
Unknown
Apparent Right ascension
Unknown
Apparent Declination
Unknown
Sunlit
N/A
Visualization observer readout
Local Sidereal Time
23:37:21
Azimuth
Unknown
Elevation
Unknown
Doppler factor
Unknown
Orbital elements
Apogee altitude
476.393 km
Perigee altitude
474.643 km
Semi-major axis
6,853.655 km
Eccentricity
0.00013
Inclination
53.1621°
RAAN
35.9757°
Arg. of periapsis
94.7831°
True anomaly
265.31692°
Mean anomaly
265.3315°
Eccentric anomaly
265.32421°
Mean motion
3.82525 °/min
Orbital period
94.11 mins
BSTAR
-0.000032095
Loading maneuver chart data...
Computing Atmospheric mass density...
Loading historical data...
Loading historical data...
Loading historical data...
Loading historical data...
Loading historical data...
Loading historical data...
Loading historical data...

Documentation

Showing up to 5 results
|